This is the latest recevied weather packets stored in our database for station/object WP3XM. If no packets are shown the sender has not sent any weather packets the latest 10 day(s).
| Time | Temp. | Humidity | Pressure | Rain* | Wind** | Luminosity | Snow |
|---|---|---|---|---|---|---|---|
| 1777420183 | 24.44° C | 93% | 1016.7 hPa | 0 mm | - | 0 W/m² | - |
| 1777419878 | 24.44° C | 93% | 1016.7 hPa | 0 mm | - | 0 W/m² | - |
| 1777419576 | 24.44° C | 93% | 1016.7 hPa | 0 mm | - | 0 W/m² | - |
| 1777419274 | 25° C | 92% | 1016.5 hPa | 0 mm | - | 0 W/m² | - |
| 1777418971 | 25° C | 92% | 1016.6 hPa | 0 mm | - | 0 W/m² | - |
| 1777418666 | 25° C | 92% | 1016.6 hPa | 0 mm | - | 0 W/m² | - |
| 1777418363 | 25.56° C | 92% | 1016.6 hPa | 0 mm | - | 0 W/m² | - |
| 1777418059 | 25° C | 93% | 1016.6 hPa | 0 mm | - | 0 W/m² | - |
| 1777417755 | 25° C | 94% | 1016.5 hPa | 0 mm | - | 0 W/m² | - |
| 1777417450 | 24.44° C | 94% | 1016.7 hPa | 0 mm | - | 0 W/m² | - |
| 1777417148 | 24.44° C | 94% | 1016.6 hPa | 0 mm | - | 0 W/m² | - |
| 1777416843 | 24.44° C | 94% | 1016.7 hPa | 0 mm | - | 0 W/m² | - |
| 1777416539 | 24.44° C | 94% | 1016.7 hPa | 0 mm | - | 1 W/m² | - |
| 1777416235 | 24.44° C | 94% | 1016.7 hPa | 0 mm | - | 2 W/m² | - |
| 1777415934 | 24.44° C | 94% | 1017 hPa | 0 mm | - | 3 W/m² | - |
| 1777415630 | 24.44° C | 94% | 1016.7 hPa | 0 mm | - | 5 W/m² | - |
| 1777415326 | 24.44° C | 94% | 1016.6 hPa | 0 mm | - | 7 W/m² | - |
| 1777415021 | 24.44° C | 94% | 1016.7 hPa | 0 mm | - | 10 W/m² | - |
| 1777414720 | 24.44° C | 95% | 1016.7 hPa | 0 mm | - | 14 W/m² | - |
| 1777414417 | 24.44° C | 94% | 1016.7 hPa | 0 mm | - | 15 W/m² | - |
| 1777414116 | 25° C | 94% | 1016.7 hPa | 0 mm | - | 18 W/m² | - |
| 1777413811 | 25° C | 94% | 1016.7 hPa | 0 mm | - | 24 W/m² | - |
| 1777413507 | 25° C | 94% | 1016.6 hPa | 0 mm | - | 30 W/m² | - |
| 1777413204 | 25° C | 94% | 1016.7 hPa | 1.27 mm | - | 35 W/m² | - |
| 1777412899 | 25° C | 93% | 1016.8 hPa | 1.27 mm | - | 32 W/m² | - |
* Rain latest hour (hover to see other rain measurements)
** Current wind speed in m/s (hover to see current wind gust speed)